Flag for Ukraine Weather past 2 weeks in Chernobyl, Ukraine

Now
54 °F

Drizzle. Fog.


Feels Like: 50 °F
Forecast: 54 / 57 °F
Wind: 10 mph from South

Location: Hostomel

Current Time: Sep 22, 2014 at 9:57:16 AM

Latest Report: Sep 22, 2014 at 9:30 AM


Visibility: 3 mi

Pressure: 29.80 "Hg

Humidity: 100%

Dew point: 54 °F

Location of ChernobylLocation

Historic Weather in Chernobyl — Graph

°F

Chernobyl temperature yesterday

Maximum temperature yesterday: 61 °F (at 11:00 AM)
Minimum temperature yesterday: 54 °F (at 9:00 PM)
Average temperature yesterday: 57 °F

Past Weeks' High & Low Weather Summary

 TemperatureHumidityPressure
High79 °F (Sep 8, 3:00 PM)100% (Sep 9, 7:00 AM)30.36 "Hg (Sep 9, 7:00 AM)
Low39 °F (Sep 19, 6:00 AM)20% (Sep 20, 4:00 PM)29.80 "Hg (Sep 22, 5:00 AM)
Average61 °F60%30.16 "Hg
* Reported Sep 7 8:00 AM — Sep 22 8:00 AM, Chernobyl, Weather by CustomWeather, © 2014

Note: Actual official high and low records may vary slightly from our data, if they occured in-between our weather recording intervals... More about our weather records

Advertising

Chernobyl weather history for previous 24 hours

 ConditionsComfort  
Time TempWeatherWind HumidityBarometerVisibility
8:00 AM
Sep 22
55 °FCool.10 mph94%29.80 "HgN/A
7:00 AM54 °FCool.8 mph94%29.80 "HgN/A
6:00 AM54 °FCool.8 mph94%29.80 "HgN/A
5:00 AM52 °FCool.8 mph100%29.80 "HgN/A
4:00 AM52 °FCool.6 mph94%29.83 "HgN/A
3:00 AM52 °FCool.6 mph94%29.83 "HgN/A
2:00 AM54 °FCool.10 mph88%29.86 "HgN/A
1:00 AM54 °FCool.8 mph88%29.86 "HgN/A
12:00 AM54 °FCool.8 mph94%29.86 "Hg6 mi
11:00 PM
Sep 21
54 °FCool.10 mph94%29.86 "HgN/A
10:00 PM54 °FCool.8 mph94%29.89 "HgN/A
9:00 PM54 °FCool.10 mph100%29.89 "Hg4 mi
8:00 PM55 °FCool.8 mph94%29.89 "Hg6 mi
7:00 PM55 °FCool.10 mph94%29.92 "Hg6 mi
6:00 PM55 °FCool.10 mph94%29.92 "Hg4 mi
5:00 PM55 °FCool.15 mph94%29.92 "Hg4 mi
4:00 PM55 °FCool.13 mph94%29.95 "Hg4 mi
3:00 PM59 °FCool.20 mph72%29.95 "HgN/A
2:00 PM61 °FCool.13 mph63%29.95 "HgN/A
1:00 PM61 °FCool.13 mph63%29.95 "HgN/A
12:00 PM61 °FRefreshingly cool.10 mph59%29.98 "HgN/A
11:00 AM61 °FRefreshingly cool.10 mph59%29.98 "HgN/A
10:00 AM59 °FCool.10 mph63%29.98 "HgN/A
9:00 AM57 °FRefreshingly cool.6 mph59%29.98 "HgN/A
Weather by CustomWeather, © 2014

See weather overviewHow to use our weather pages